Terug naar catalogus

CZ-6A DEB

ActiefSSO
NORAD 54921·DEBRIS·🇨🇳 China

Gelanceerd Nov 11, 2022 vanaf Taiyuan Satellite Launch Center

Loading…

Volgende Passages (komende 24 uur)

TLE

VersSource: Space-Track

Epoch: Sep 14, 2026, 01:03 UTC

1 54921U 22151RJ  26257.04400162  .00000518  00000-0  14844-3 0  9999
2 54921  98.5365 295.6438 0119283  44.5538 316.5168 14.45162845198546

Volg CZ-6A DEB in realtime met AllMySat

Download on the App Store